Location: Izdebno
(52.6670°N, 16.2170°E)
Time: 13:21:49
(UTC+02:00)

A-11 Canister half - Pass Details

Date: 22 February 2024
Orbit: 1525 x 1683 km, 47.3° (Epoch: 24 April)

Event Time Altitude Azimuth Distance (km) Brightness Sun altitude
Rises 20:23:49 0° 201° (SSW) 4,754 11.6 -28.2°
Reaches altitude 10° 20:27:32 10° 189° (S) 3,749 10.9 -28.7°
Enters shadow 20:29:58 17° 178° (S) 3,198 10.4 -29.0°
